Date,TemperatureHighF,TemperatureAvgF,TemperatureLowF,DewpointHighF,DewpointAvgF,DewpointLowF,HumidityHigh,HumidityAvg,HumidityLow,PressureMaxIn,PressureMinIn,WindSpeedMaxMPH,WindSpeedAvgMPH,GustSpeedMaxMPH,PrecipitationSumIn
2013-5-1,75,65,58,63,60,56,96,84,62,30.15,30.05,4,1,8,0.04
2013-5-6,74,67,58,63,57,52,88,72,47,29.87,29.79,7,3,10,0.14
2013-5-7,69,60,53,59,54,50,94,81,56,29.94,29.85,4,1,7,0.04
2013-5-8,75,65,54,63,58,52,96,78,58,30.00,29.91,5,1,8,0.03
2013-5-9,82,70,61,66,62,57,90,76,49,30.05,29.96,4,1,10,0.00
2013-5-10,84,72,62,68,63,58,90,73,51,30.06,29.97,5,2,12,0.00
2013-5-11,83,75,70,72,67,61,90,75,50,29.99,29.82,4,2,7,0.00
2013-5-12,83,74,63,67,60,48,90,64,35,29.94,29.79,5,2,9,0.00
2013-5-13,73,63,52,54,44,38,80,52,29,30.10,29.94,4,1,11,0.00
2013-5-14,70,61,48,53,45,38,93,59,36,30.23,30.10,5,2,9,0.00
2013-5-15,86,71,59,65,58,52,86,65,43,30.12,29.94,5,2,8,0.00
2013-5-16,76,68,67,68,59,58,75,73,71,29.98,29.94,2,1,4,0.00
2013-5-17,88,80,70,68,65,60,79,62,46,30.08,30.01,5,2,8,0.00
2013-5-18,82,73,65,71,67,62,95,81,55,30.13,30.06,5,2,10,0.00
2013-5-19,79,73,70,71,68,65,96,85,64,30.11,30.04,6,2,9,0.04
2013-5-20,73,72,70,71,69,67,95,91,86,30.10,30.01,4,1,7,1.12
2013-5-21,72,71,71,70,69,69,93,93,92,29.99,29.97,2,1,4,0.07
2013-5-22,81,74,66,72,70,64,99,86,72,30.01,29.90,6,2,8,0.00
2013-5-23,81,73,67,74,69,66,98,89,69,29.94,29.81,6,1,10,1.75
2013-5-24,81,71,59,68,60,44,98,71,36,30.14,29.78,6,2,13,0.00
2013-5-25,78,63,49,56,47,41,88,60,27,30.26,30.12,4,1,7,0.00
2013-5-26,76,66,57,60,55,48,91,69,39,30.23,30.13,4,1,7,0.00
2013-5-27,77,69,58,65,61,57,98,78,60,30.23,30.15,4,2,9,0.00
2013-5-28,81,73,63,69,65,61,98,79,61,30.24,30.16,6,2,9,0.00
2013-5-29,80,73,64,69,66,63,97,79,60,30.24,30.13,4,2,8,0.00
2013-5-30,83,75,63,72,68,62,98,80,64,30.24,30.15,4,1,6,0.00
2013-5-31,82,75,68,73,70,66,98,86,70,30.20,30.16,4,1,8,0.00